Regional Weather Roundup
Issued by NWS Huntsville, AL

Home | Current Version | Previous Version | Text Only | Print | Product List | Glossary On
Versions: 1 2 3 4 5 6 7 8 9 10 11 12 13 14 15 16 17 18 19 20 21 22 23 24 25 26 27 28 29 30 31 32 33 34 35 36 37 38 39 40 41 42 43 44 45 46 47 48 49 50
000
ASUS44 KHUN 021210
RWRHUN

WEATHER ROUNDUP FOR THE TENNESSEE VALLEY
NATIONAL WEATHER SERVICE HUNTSVILLE AL
600 AM CST MON MAR 02 2015

ALZ001>004-021300-
NORTHWEST ALABAMA

CITY           SKY/WX    TMP DP  RH WIND       PRES   REMARKS
SHOALS AIRPORT CLOUDY    42  39  89 N9G18     30.40R FOG
6HR MIN TEMP:  42; 6HR MAX TEMP:  51; 6HR PCP:  0.06;

$$

ALZ005>007-016-021300-
NORTH CENTRAL ALABAMA

CITY           SKY/WX    TMP DP  RH WIND       PRES   REMARKS
DECATUR AP     CLOUDY    43  42  97 N14       30.38R
6HR MIN TEMP:  43; 6HR MAX TEMP:  49; 6HR PCP:  0.17;

HUNTSVILLE AP  DRIZZLE   45  39  81 N18       30.37R
6HR MIN TEMP:  44; 6HR MAX TEMP:  50; 6HR PCP:  0.15;

HUN NWS/UAH      N/A     41  38  91 N7          N/A
MERIDIANVILLE  CLOUDY    37  34  87 N13G20    30.39R FOG     WCI  29
REDSTONE ARSN  LGT RAIN  42  41  98 N17G24    30.36R
VINEMONT AP    DRIZZLE   49  48  99 N6        30.34R
$$

ALZ008>010-021300-
NORTHEAST ALABAMA

CITY           SKY/WX    TMP DP  RH WIND       PRES   REMARKS
ALBERTVILLE    CLOUDY    46  46 100 CALM      30.31R FOG
FORT PAYNE     CLOUDY    45  43  93 CALM      30.32R FOG
SCOTTSBORO AP  CLOUDY    46  46 100 N5        30.35R FOG
SCOTTSBORO HCN   N/A     46 N/A N/A MISG        N/A
VALLEY HEAD      N/A     45 N/A N/A MISG        N/A
$$

TNZ076-096-097-021300-
SOUTHEASTERN MIDDLE TENNESSEE

CITY           SKY/WX    TMP DP  RH WIND       PRES   REMARKS
TULLAHOMA      CLOUDY    34  34 100 N8        30.40R WCI  27
WINCHESTER     CLOUDY    37  36  93 N12       30.40R WCI  30
$$

...SURROUNDING SITES...

CITY           SKY/WX    TMP DP  RH WIND       PRES   REMARKS
ATLANTA        DRZL/FOG  46  45  96 NW8       30.30R VSB 3/4
ANNISTON       CLOUDY    49  48  97 CALM      30.32S FOG
BIRMINGHAM     FOG       52  51  97 N3        30.33R VSB 1
CHATTANOOGA    CLOUDY    47  45  93 N6        30.34R FOG
CORINTH        CLOUDY    37  36  93 N10       30.42R WCI  30
DALTON         CLOUDY    45  45 100 CALM      30.32S FOG
GADSDEN        CLOUDY    46  45  93 CALM      30.32S
GOLDEN TRNGL   CLOUDY    50  46  87 N14       30.33R
HALEYVILLE     HVY RAIN  43  43 100 N10       30.37R FOG
JACKSON TN     CLOUDY    32  28  85 NE9       30.47R WCI  24
LEWISBURG      CLOUDY    33  32  96 N21G29    30.43R WCI  21
MEMPHIS        CLOUDY    34  29  82 NE13      30.44R WCI  25
MURFREESBORO   CLOUDY    33  33 100 N8        30.45R WCI  26
NASHVILLE      CLOUDY    33  30  88 N9        30.48R WCI  25
OXFORD MS      CLOUDY    36  34  93 N8G17     30.41R FOG     WCI  29
ROME           CLOUDY    46  45  96 SE5       30.31S FOG
SAVANNAH       CLOUDY    36  36 100 N9        30.43R WCI  29
TUPELO         CLOUDY    40  38  93 NE14      30.38R WCI  32
TUSCALOOSA     CLOUDY    53  52  96 NE5       30.32R FOG
$$

...GULF COAST WEATHER...

CITY           SKY/WX    TMP DP  RH WIND       PRES   REMARKS
GULFPORT       LGT RAIN  58  57  97 E6        30.26S FOG
PASCAGOULA     LGT RAIN  57  57 100 SE5       30.27S VSB 1/4
MOBILE         FOG       54  54 100 S5        30.29R VSB 1/4
GULF SHORES    FOG       60  60 100 SE3       30.27R VSB 1/2
PENSACOLA      CLOUDY    60  58  92 NW5       30.28R FOG
DESTIN         PTCLDY    58  57  97 SE7       30.27S
PANAMA CITY    FOG       56  55  98 E3        30.29R VSB 1/4
APPALACHICOLA  FOG       61  58  90 NE3       30.29S VSB 1/4
$$




USA.gov is the U.S. government's official web portal to all federal, state and local government web resources and services.